Lapse_Rate
2.5 2.3 2.0 1.8 1.3 0.9 0.7 0.9 0.9 0.6 0.8 0.9 0.8 0.6 0.2 -0.2 -0.0 1.4 3.8 4.8 4.4 5.7 5.4 7.5 7.5 7.5 7.5 6.8 7.1 6.6 6.5 6.5 6.5 6.5 6.5 6.1 6.5 6.4 6.1 6.1 6.1 6.8 5.8 5.7 5.0
2.9 2.7 2.3 1.8 1.5 1.4 1.1 0.9 0.8 0.7 0.7 0.8 0.8 0.3 0.2 -0.2 0.5 2.4 4.1 6.4 5.8 5.4 6.1 6.3 6.5 7.1 5.4 6.0 5.5 5.7 6.5 6.5 6.5 6.5 6.5 6.3 6.1 6.1 6.3 6.1 5.8 5.7 4.5 5.3 5.7
3.6 3.1 2.5 2.2 2.0 1.7 1.1 0.9 0.8 0.8 0.9 0.7 0.4 0.1 0.0 -0.1 2.7 4.3 4.7 4.9 5.3 5.4 6.7 7.2 7.1 7.1 6.3 6.1 5.8 6.0 6.5 6.5 6.3 6.2 5.7 6.0 5.9 6.4 6.2 6.5 5.5 6.0 5.7 6.1 5.8
4.5 3.2 2.8 2.5 2.2 2.0 1.6 1.2 1.0 0.9 0.9 0.6 0.2 -0.0 0.1 1.4 6.5 5.5 4.7 4.8 5.4 5.3 6.4 7.3 6.8 6.1 6.4 6.5 5.3 6.5 5.8 5.9 5.9 6.1 6.4 6.4 6.0 5.7 5.7 4.8 4.8 4.6 5.5 6.4 6.4
5.2 4.8 4.0 3.4 2.9 2.2 1.8 1.4 1.2 0.9 0.7 0.3 0.1 0.4 1.6 4.6 4.0 5.1 4.5 4.8 4.8 5.4 5.9 6.3 6.0 5.6 6.5 6.1 6.0 6.5 6.4 5.6 5.4 5.4 5.5 6.0 5.7 6.1 5.2 4.8 5.1 5.1 4.7 5.3 5.8
4.6 4.3 3.9 3.4 2.8 2.4 2.1 1.6 1.4 1.0 0.4 0.3 0.3 0.4 2.6 6.1 6.2 4.7 4.4 4.2 5.9 6.1 6.5 6.5 6.6 5.9 5.7 6.2 6.4 5.8 6.3 5.9 5.8 5.7 5.7 6.2 5.8 5.5 4.9 5.0 4.7 5.2 4.4 4.6 5.4
4.1 4.2 3.9 3.4 2.7 2.1 1.9 1.5 1.3 0.9 0.5 0.5 0.8 2.7 4.4 3.6 6.9 4.7 5.3 5.1 5.8 6.5 6.7 6.7 6.9 6.7 5.8 6.5 5.6 6.0 6.5 6.5 5.9 5.5 6.3 5.2 6.5 6.5 4.4 4.3 4.5 4.5 4.0 4.6 4.6
4.2 4.0 3.6 2.9 2.3 1.9 1.5 1.4 1.2 0.5 0.5 1.0 1.2 3.6 3.3 5.8 5.8 6.9 6.3 6.0 6.7 7.2 7.4 7.7 7.3 6.8 6.3 5.6 5.6 6.5 6.5 6.5 6.5 6.3 5.8 5.8 6.5 6.5 4.0 3.5 4.2 3.4 2.8 3.9 4.3
4.2 3.7 3.0 2.6 2.0 1.5 0.8 0.6 1.0 1.4 1.5 1.8 2.2 3.8 5.1 7.1 6.4 6.6 7.1 7.0 7.1 7.4 7.5 8.7 7.4 6.1 6.0 6.5 6.5 6.5 6.5 6.5 6.5 6.2 6.5 6.5 6.5 6.3 5.1 5.1 4.4 3.2 3.1 3.5 3.3
4.5 3.9 3.5 2.2 1.8 1.6 1.1 0.8 1.6 2.7 3.3 4.8 5.9 6.2 4.8 5.9 6.6 7.1 6.2 7.1 6.8 7.0 6.9 7.0 5.5 6.5 6.5 6.5 6.5 6.5 6.5 6.5 6.5 6.5 6.5 6.5 6.5 6.5 4.1 4.5 3.8 3.0 3.2 4.0 2.5
4.3 3.6 2.3 1.7 1.6 2.2 1.3 0.1 3.6 4.9 5.7 6.2 6.2 5.2 6.1 6.7 7.6 6.4 6.8 7.0 6.6 5.7 6.5 5.6 6.5 6.5 6.5 6.5 6.5 6.5 6.5 6.5 6.5 6.5 6.5 6.5 6.5 6.5 5.1 4.3 4.4 3.3 2.7 3.5 2.3
4.8 4.4 3.5 2.1 1.7 2.6 3.9 6.4 7.3 8.0 6.6 6.0 4.8 5.4 5.5 6.2 6.9 6.6 6.7 5.9 5.7 6.5 6.4 6.5 6.5 6.5 6.5 6.5 6.5 6.5 6.5 6.5 6.5 6.5 6.5 6.5 6.5 6.5 6.5 5.8 3.7 3.4 3.6 3.2 3.0
5.1 4.4 3.9 2.7 2.3 4.7 5.7 6.6 6.8 6.5 6.1 6.9 6.3 6.8 6.3 6.0 6.8 6.2 6.4 5.9 6.3 6.5 6.5 6.5 6.5 6.5 6.5 6.5 6.5 6.5 6.5 6.5 6.5 6.5 6.5 6.5 6.5 6.5 6.5 5.8 4.6 4.1 3.4 2.8 2.7
5.2 4.8 4.4 2.9 3.9 2.9 6.5 5.9 5.9 6.1 6.5 6.5 6.6 6.5 7.3 7.0 6.3 7.3 6.8 6.5 6.3 6.5 6.5 6.5 6.4 6.5 6.5 6.5 6.5 6.5 6.5 6.5 6.5 6.5 6.5 6.5 6.5 6.5 6.5 6.5 6.5 4.9 2.9 3.1 3.1
5.3 4.9 4.6 4.9 3.7 4.9 6.3 5.6 5.9 5.2 6.5 6.5 6.4 7.0 6.7 6.4 6.5 6.3 6.7 6.0 6.5 6.5 6.5 6.5 6.5 6.5 6.5 6.5 6.5 6.5 6.5 6.5 6.5 6.5 6.5 6.5 6.5 6.5 6.5 6.5 6.5 6.1 4.7 3.8 4.0
6.1 5.8 5.1 4.3 3.4 6.0 6.7 5.8 4.9 6.5 6.5 6.5 6.4 6.5 6.5 6.1 6.4 6.0 6.3 6.3 6.0 6.5 6.5 6.5 5.8 6.5 6.5 6.5 6.5 6.5 6.5 6.5 6.5 6.5 6.5 6.5 6.5 6.5 6.5 6.5 6.5 6.2 5.8 4.8 4.6
6.9 6.8 6.2 6.7 4.6 5.5 5.5 4.3 6.5 6.5 6.5 6.5 6.5 6.5 6.5 6.5 6.5 6.5 6.5 6.5 6.5 6.5 6.5 6.5 6.5 6.5 6.3 6.5 6.5 6.5 6.5 6.5 6.5 6.5 6.5 6.5 6.5 6.5 6.5 6.5 6.5 6.5 6.0 5.0 4.9
6.8 7.0 6.5 6.7 6.4 7.0 6.1 6.4 6.5 6.5 6.5 6.5 6.5 6.5 6.5 6.5 6.5 6.5 6.5 6.5 6.5 6.5 6.5 6.5 6.5 6.5 6.5 6.5 6.5 6.5 6.5 6.5 6.5 6.5 6.5 6.5 6.5 6.5 6.5 6.0 5.9 6.4 5.6 5.4 5.2
6.8 5.4 6.5 6.5 7.5 7.5 6.5 6.5 6.5 6.5 6.5 6.5 6.5 6.5 6.5 6.5 6.5 6.5 6.5 6.5 6.5 6.5 6.5 6.5 6.5 6.5 6.5 6.5 6.5 6.5 6.5 6.5 6.5 6.5 6.5 6.5 6.5 6.5 6.5 6.5 6.3 6.4 6.1 5.4 5.2
5.2 5.3 6.0 6.6 7.4 6.9 6.3 6.5 6.5 6.5 6.5 6.5 6.5 6.5 6.5 6.5 6.5 6.5 6.5 6.5 6.5 6.5 6.4 6.5 6.5 6.5 6.5 6.2 6.4 6.5 6.5 6.5 6.5 6.5 6.5 6.5 6.5 6.5 6.5 6.5 6.5 6.5 6.3 5.7 5.6
5.5 5.5 6.2 7.9 7.1 6.5 6.5 6.5 6.5 6.9 6.7 6.5 6.5 6.5 6.5 6.5 6.5 6.5 6.5 6.5 6.5 6.5 6.6 6.5 6.5 6.5 6.5 6.5 6.5 6.5 6.5 6.5 6.5 6.5 6.5 6.5 6.5 6.5 6.5 6.5 6.5 6.5 6.3 5.7 5.9
6.0 6.5 6.0 7.2 5.9 5.5 6.5 6.5 6.8 6.6 6.9 6.5 6.5 6.5 6.5 6.5 6.5 6.5 6.5 6.5 6.4 6.4 6.5 6.5 6.5 6.5 6.5 6.5 6.5 6.5 6.5 6.5 6.5 6.5 6.5 6.5 6.5 6.5 6.5 6.5 6.3 6.1 6.2 5.7 6.1
6.5 5.2 6.4 5.9 6.5 6.5 6.5 6.5 6.7 6.5 6.5 6.5 6.5 6.5 6.5 6.5 6.5 6.5 6.5 6.3 5.9 6.5 6.5 6.5 6.5 6.5 6.5 6.5 6.5 6.5 6.5 6.5 6.5 6.5 6.5 6.5 6.5 6.5 6.5 6.5 6.1 6.0 5.7 5.8 5.4
6.5 6.5 5.1 5.3 6.0 6.4 6.5 6.5 6.5 6.8 6.5 6.6 6.5 6.5 6.5 6.5 6.5 6.5 6.5 6.5 6.1 6.6 7.0 6.7 6.5 6.5 6.5 6.5 6.5 6.5 6.5 6.5 6.5 6.5 6.5 6.5 6.5 6.5 6.5 6.5 6.3 5.8 5.8 5.5 5.3
6.6 6.6 6.9 6.5 6.3 6.5 6.5 6.5 6.5 6.5 6.7 6.3 6.5 6.5 6.5 6.5 6.5 6.5 6.5 6.5 6.4 6.8 6.5 6.5 6.5 6.5 6.5 6.5 6.5 6.5 6.5 6.5 6.5 6.5 6.5 6.5 6.5 6.5 6.5 6.5 6.2 6.0 6.0 5.5 5.6
6.7 6.4 6.5 6.6 6.3 6.5 6.5 6.5 6.5 6.5 6.5 6.5 6.5 6.5 6.5 6.5 6.5 6.5 6.5 6.5 6.5 6.5 6.5 6.5 6.5 6.5 6.5 6.5 6.5 6.5 6.5 6.5 6.5 6.5 6.5 6.5 6.5 6.5 5.9 4.2 5.2 5.9 6.4 6.3 5.7
7.0 7.3 6.7 6.7 6.5 6.5 6.5 6.5 6.5 6.5 6.6 7.0 6.6 6.5 6.5 6.5 6.1 5.8 5.3 5.6 6.2 6.5 6.5 6.5 6.5 6.5 6.5 6.5 6.5 6.5 6.5 6.5 6.5 6.5 6.5 6.5 6.5 6.5 6.5 6.5 6.2 6.1 6.3 6.3 5.4
Wind_Speed
14 15 16 17 18 18 18 19 20 18 17 18 20 18 19 17 17 2 5 9 7 12 6 2 4 5 3 0 1 2 3 3 3 4 2 2 3 1 5 1 2 2 5 6 8
15 16 16 16 17 17 18 18 19 20 20 19 19 20 17 17 4 8 10 9 16 16 5 5 3 2 2 3 1 3 3 3 1 1 3 2 4 3 2 2 3 4 7 6 7
15 16 17 18 18 19 18 18 19 18 19 20 20 18 16 11 4 6 11 17 18 15 4 5 3 4 2 2 3 4 4 3 5 2 4 5 4 1 2 4 3 0 5 3 5
20 21 22 22 23 23 23 23 22 22 20 20 18 16 13 2 2 1 15 19 16 12 3 4 4 3 2 3 6 2 8 6 7 3 2 3 4 6 3 8 8 8 6 4 4
21 21 22 24 25 25 26 25 25 23 21 20 17 11 3 2 8 9 13 14 8 6 5 5 5 4 4 4 4 6 6 7 8 7 6 4 6 5 8 9 5 7 7 5 2
21 21 22 24 25 27 28 28 28 26 23 20 14 5 0 4 3 14 11 6 6 5 6 5 5 6 5 4 3 4 3 5 5 6 6 7 7 4 7 9 7 9 8 7 6
21 22 24 26 26 26 27 28 27 26 24 18 8 3 3 12 3 16 12 6 4 7 5 5 5 3 2 6 6 4 6 7 9 7 7 7 6 9 12 8 10 9 9 9 9
22 24 26 27 29 31 32 31 29 25 20 11 3 3 7 5 11 7 9 7 8 7 4 2 3 1 3 4 7 5 4 1 7 7 7 9 9 9 10 10 11 10 8 8 9
23 24 26 29 31 33 35 37 33 18 5 2 1 2 8 3 6 9 11 10 9 6 5 2 3 4 3 3 4 3 4 7 8 7 6 7 7 9 5 5 8 9 9 7 6
24 25 29 29 32 35 37 34 18 3 2 5 6 3 6 6 4 6 8 10 6 5 3 1 1 2 2 3 5 5 4 6 5 4 4 5 11 9 9 7 10 9 8 3 10
25 27 30 35 36 40 20 5 5 4 5 6 5 5 7 5 1 6 7 9 5 5 7 5 3 8 11 9 8 8 6 7 6 4 6 11 10 11 10 7 9 9 8 8 8
22 24 27 33 37 35 10 4 6 5 12 13 21 20 24 7 5 8 9 10 7 11 6 4 13 13 11 12 10 10 9 5 5 7 2 5 11 10 10 9 8 10 8 8 6
20 21 26 34 37 5 5 8 13 13 5 12 10 9 12 13 14 9 12 8 8 8 10 12 12 13 15 14 11 8 4 4 7 7 4 5 9 8 5 4 10 9 9 8 8
18 19 26 35 7 9 2 14 17 6 4 7 6 6 6 6 6 18 12 13 7 16 7 9 16 18 9 10 10 5 7 5 3 2 4 5 6 6 4 5 7 10 9 8 8
16 19 20 20 4 4 9 19 17 2 6 2 5 3 4 10 2 4 16 10 17 8 9 9 5 10 15 17 8 7 4 3 0 2 4 2 2 7 3 6 8 8 10 9 8
19 20 21 9 5 5 20 19 2 1 8 5 2 3 4 7 4 5 9 3 5 8 11 13 10 4 8 4 5 6 4 2 2 3 3 6 9 5 4 9 8 8 11 11 9
17 17 13 14 4 18 15 5 2 5 6 2 2 4 5 4 9 5 2 11 10 13 15 10 17 8 4 4 2 6 7 2 2 1 6 4 5 11 6 10 15 19 14 12 9
17 16 9 14 18 17 4 1 6 4 7 6 7 7 5 7 7 10 8 6 10 6 1 9 9 13 5 10 7 7 8 6 6 4 5 5 5 5 2 4 14 16 15 12 9
17 3 3 7 13 3 1 5 8 7 2 8 12 4 4 7 7 9 11 14 8 17 12 5 7 8 12 6 14 5 8 7 2 2 2 4 6 3 3 8 12 15 15 12 10
3 3 5 22 15 2 3 11 6 3 9 6 3 5 5 6 7 6 7 7 14 12 19 9 16 7 5 6 6 9 6 3 1 3 5 6 5 6 8 11 13 15 14 12 11
2 4 5 8 5 4 8 9 11 15 15 3 3 8 9 7 5 5 6 8 10 9 13 16 13 5 3 4 11 5 6 3 5 5 5 3 5 5 18 17 17 13 13 14 12
1 3 3 5 1 4 14 5 8 20 17 13 5 9 10 13 11 7 6 3 9 5 5 7 12 17 18 6 6 14 18 15 5 5 5 3 6 3 10 16 15 13 13 14 13
3 4 4 4 6 6 7 20 24 21 19 11 12 10 13 7 5 7 6 2 7 7 8 10 5 12 1 4 4 6 5 11 9 2 6 5 5 3 8 12 13 15 14 14 13
3 5 3 3 5 10 16 16 12 20 21 18 17 12 3 6 5 5 8 3 7 9 17 14 5 11 17 10 7 6 11 12 15 13 8 8 4 2 6 11 11 14 17 16 15
3 5 4 4 5 10 12 15 20 15 20 18 15 16 14 7 6 9 3 6 2 9 3 2 6 10 15 11 9 10 14 23 23 20 12 17 17 10 10 12 17 13 16 17 16
5 3 3 4 3 12 11 12 17 15 16 12 16 16 11 8 7 5 5 4 3 3 3 2 5 10 11 12 9 15 14 10 18 21 20 17 10 12 14 8 10 17 18 18 17
3 7 6 8 9 6 12 17 17 16 16 24 24 20 9 10 4 4 5 4 6 6 1 0 5 6 7 13 7 11 23 21 10 18 15 20 22 2 4 17 18 18 19 20 19
Wind_Direction
13 8 6 1 358 356 353 348 344 343 339 337 334 334 330 330 318 157 238 226 183 168 151 224 254 268 330 235 66 58 57 252 270 15 13 87 109 153 143 57 345 241 123 178 177
9 5 2 359 354 349 346 345 342 339 335 333 331 331 330 336 290 246 222 187 150 154 144 193 216 204 331 205 195 113 156 242 327 99 359 37 143 124 92 278 287 281 85 146 136
354 354 350 346 342 338 336 333 334 332 328 329 328 328 327 333 309 253 204 172 158 161 180 200 243 170 232 184 212 203 212 248 298 73 49 332 344 282 249 292 246 262 126 132 111
5 2 358 355 348 340 333 328 327 326 326 326 324 323 320 247 260 221 142 156 165 157 169 211 250 167 279 248 228 258 236 259 279 147 132 289 307 307 213 228 199 151 141 134 157
8 3 359 352 345 340 335 330 327 323 320 322 323 327 343 252 252 164 152 153 150 146 205 220 195 200 215 245 317 226 242 256 266 187 185 225 267 250 277 272 254 169 135 139 316
4 358 353 347 342 336 330 325 321 319 316 317 318 313 3 258 221 156 145 163 177 191 225 207 203 217 245 230 211 271 266 287 276 258 217 205 237 191 244 243 242 171 171 175 213
4 358 352 345 339 332 325 318 313 312 311 309 304 256 259 243 168 163 159 192 198 196 229 241 214 141 64 313 268 290 289 300 265 247 235 200 277 229 250 226 236 206 183 190 206
360 354 348 342 335 330 323 316 309 303 301 293 233 236 245 241 241 201 187 194 218 224 224 16 88 50 170 279 349 303 312 284 269 227 236 157 253 260 266 257 213 194 202 211 214
354 349 345 340 333 328 322 316 306 297 243 181 158 205 264 277 216 196 180 190 202 221 208 220 81 212 284 169 355 267 246 215 302 215 147 159 241 250 259 173 191 199 211 217 234
350 347 341 338 333 328 324 312 293 353 200 197 263 329 271 240 204 199 182 181 172 181 155 156 159 233 327 119 214 217 242 290 268 274 141 211 246 251 262 217 220 212 205 178 101
346 344 340 334 333 328 334 350 7 15 4 243 228 246 283 244 125 191 184 173 165 167 182 199 178 218 223 225 234 243 248 251 272 220 190 229 244 252 245 248 233 207 193 123 110
341 339 336 329 326 322 326 56 36 284 294 263 256 258 255 271 289 199 164 172 177 204 171 233 236 220 225 240 237 247 241 273 287 314 292 267 265 261 249 229 200 179 132 121 98
338 340 337 332 322 12 336 38 340 350 268 282 230 238 236 208 236 220 182 182 197 190 197 208 225 213 223 243 258 268 221 257 250 281 292 298 297 267 312 120 105 110 116 103 102
335 340 346 341 36 329 37 345 335 324 294 271 205 253 160 191 241 221 208 188 218 211 199 237 243 246 250 227 194 251 242 238 264 53 254 83 288 272 250 143 138 136 123 121 104
330 336 348 347 280 320 318 323 321 91 320 228 156 267 171 173 178 252 200 194 207 187 173 223 219 212 230 242 196 222 191 173 276 332 341 140 284 273 141 177 178 148 136 129 129
328 327 339 344 313 284 331 321 354 62 250 280 111 145 116 206 260 12 179 177 175 232 251 228 248 192 211 179 213 142 107 5 15 90 295 218 178 273 213 190 169 137 145 142 132
317 311 315 309 280 315 324 341 61 211 307 171 234 158 180 203 224 243 158 203 197 215 239 272 259 255 155 148 89 104 87 322 344 18 231 268 172 243 285 174 169 157 153 145 140
317 309 279 273 272 292 330 58 224 233 248 358 8 322 236 187 222 204 226 225 222 213 145 218 263 217 201 181 172 183 153 166 212 205 253 298 240 257 236 117 135 140 141 139 142
328 254 240 259 262 224 48 220 210 188 263 14 344 307 241 233 204 198 207 220 218 206 223 236 234 270 209 167 158 202 204 165 62 273 50 238 290 357 98 102 128 142 141 148 144
329 281 250 246 254 139 202 239 249 268 2 37 323 305 308 343 351 6 202 210 224 208 210 225 274 265 237 135 192 152 164 112 105 204 234 268 241 228 189 176 154 160 156 156 151
346 320 252 298 145 197 217 227 259 274 297 267 277 291 293 324 358 339 292 333 20 339 250 219 223 278 310 207 169 173 211 194 145 164 190 264 256 224 194 181 176 168 161 160 156
224 257 277 37 244 219 232 210 241 272 284 288 291 278 272 292 291 279 229 350 38 334 18 328 219 229 225 236 218 203 205 198 142 231 219 168 270 281 187 176 165 167 162 160 156
249 259 293 75 254 260 273 251 245 259 257 257 259 270 287 268 258 247 231 220 355 45 29 348 310 230 249 261 255 216 188 198 200 124 215 166 259 1 126 149 172 165 159 160 150
272 266 275 180 231 235 257 270 271 257 250 247 248 257 212 258 240 268 303 307 356 0 350 346 263 267 236 234 151 203 198 210 209 226 222 222 270 284 177 165 172 170 157 156 156
240 245 228 267 229 233 244 264 272 269 265 255 257 244 237 243 259 270 262 316 12 15 6 90 268 295 306 236 196 204 204 206 214 220 203 240 239 225 208 185 181 164 148 151 159
274 279 288 253 235 241 251 259 260 285 250 272 262 249 205 205 211 237 249 187 219 36 35 19 284 319 296 287 241 244 243 239 225 225 233 249 255 240 206 132 150 168 161 164 165
231 244 244 258 240 237 241 253 259 259 264 266 264 275 227 225 201 167 159 139 155 154 173 329 326 334 283 290 288 256 238 242 239 223 218 231 237 290 185 173 173 176 175 171 169